Total_Precipitation_Accumulation
0.06 0.08 0.08 0.14 0.10 0.04 0.05 0.08 0.03 0.03 0.05 0.02 0.03 0.04 0.03 0.02 0.06 0.10 0.16 0.33 0.55 0.64 0.49 0.34 0.24 0.19 0.18 0.19 0.21 0.21 0.20 0.20 0.21 0.21 0.19 0.14 0.12 0.12 0.08 0.05 0.08 0.10 0.08
0.05 0.08 0.07 0.08 0.05 0.06 0.08 0.04 0.04 0.05 0.06 0.01 0.01 0.02 0.02 0.01 0.04 0.09 0.20 0.31 0.50 0.76 0.84 0.65 0.51 0.39 0.28 0.23 0.22 0.23 0.21 0.19 0.18 0.20 0.19 0.13 0.10 0.09 0.08 0.06 0.10 0.13 0.12
0.07 0.11 0.09 0.07 0.07 0.09 0.08 0.08 0.10 0.07 0.07 0.02 0.01 0.01 0.02 0.04 0.04 0.04 0.09 0.23 0.31 0.40 0.62 0.75 0.74 0.64 0.44 0.29 0.22 0.18 0.17 0.17 0.17 0.16 0.17 0.13 0.10 0.08 0.07 0.08 0.10 0.10 0.10
0.12 0.19 0.20 0.16 0.18 0.19 0.14 0.11 0.08 0.06 0.08 0.06 0.05 0.03 0.02 0.02 0.03 0.03 0.03 0.04 0.07 0.09 0.16 0.24 0.29 0.39 0.45 0.41 0.32 0.21 0.17 0.14 0.12 0.13 0.12 0.10 0.08 0.07 0.07 0.07 0.07 0.07 0.09
0.33 0.37 0.43 0.34 0.26 0.28 0.24 0.17 0.12 0.15 0.11 0.11 0.08 0.07 0.03 0.01 0.01 0.01 0.01 0.01 0.01 0.03 0.06 0.05 0.08 0.12 0.19 0.25 0.29 0.29 0.23 0.16 0.11 0.10 0.09 0.07 0.06 0.07 0.07 0.07 0.06 0.08 0.09
0.60 0.63 0.67 0.59 0.46 0.44 0.44 0.31 0.29 0.27 0.25 0.23 0.15 0.11 0.06 0.04 0.01 0.01 0.01 0.02 0.02 0.01 0.01 0.01 0.03 0.04 0.05 0.08 0.11 0.17 0.21 0.18 0.13 0.11 0.10 0.08 0.06 0.06 0.07 0.07 0.08 0.08 0.09
0.94 0.97 0.87 0.93 0.86 0.77 0.75 0.61 0.61 0.57 0.43 0.29 0.40 0.39 0.19 0.07 0.04 0.03 0.01 0.01 0.01 0.01 0.00 0.00 0.02 0.03 0.02 0.01 0.03 0.06 0.09 0.12 0.11 0.10 0.09 0.08 0.07 0.06 0.07 0.08 0.09 0.12 0.11
1.34 1.19 1.15 1.24 1.17 1.17 1.21 1.01 0.98 0.93 0.69 0.45 0.63 0.76 0.43 0.23 0.10 0.04 0.03 0.02 0.02 0.02 0.01 0.00 0.00 0.01 0.01 0.01 0.01 0.01 0.03 0.06 0.09 0.09 0.07 0.06 0.06 0.05 0.05 0.06 0.10 0.14 0.12
1.80 1.60 1.46 1.45 1.38 1.34 1.46 1.44 1.32 1.22 1.07 0.80 0.69 0.76 0.64 0.53 0.32 0.09 0.06 0.06 0.06 0.05 0.03 0.01 0.01 0.00 0.00 0.01 0.00 0.00 0.01 0.02 0.05 0.06 0.06 0.06 0.06 0.06 0.05 0.05 0.10 0.12 0.09
1.96 1.85 1.73 1.66 1.54 1.39 1.44 1.51 1.46 1.45 1.45 1.19 0.95 0.74 0.58 0.55 0.49 0.28 0.12 0.09 0.11 0.09 0.08 0.05 0.02 0.01 0.01 0.00 0.00 0.00 0.00 0.01 0.02 0.05 0.06 0.07 0.07 0.07 0.06 0.07 0.11 0.11 0.09
1.73 1.65 1.67 1.70 1.61 1.48 1.46 1.56 1.62 1.65 1.53 1.41 1.23 1.09 0.96 0.83 0.56 0.49 0.38 0.19 0.12 0.12 0.13 0.10 0.06 0.03 0.02 0.01 0.00 0.00 0.00 0.00 0.01 0.03 0.04 0.06 0.08 0.09 0.10 0.10 0.10 0.10 0.12
1.54 1.45 1.50 1.55 1.53 1.47 1.41 1.43 1.51 1.55 1.57 1.57 1.42 1.22 1.12 1.02 0.94 0.83 0.58 0.38 0.24 0.12 0.11 0.11 0.08 0.05 0.03 0.02 0.01 0.01 0.00 0.00 0.01 0.01 0.02 0.03 0.05 0.08 0.10 0.13 0.12 0.10 0.11
1.44 1.38 1.36 1.43 1.47 1.43 1.45 1.49 1.43 1.38 1.45 1.48 1.44 1.34 1.25 1.08 0.96 0.96 0.80 0.58 0.45 0.22 0.09 0.07 0.07 0.05 0.04 0.03 0.02 0.01 0.01 0.01 0.01 0.01 0.01 0.02 0.02 0.04 0.07 0.15 0.20 0.22 0.28
1.04 0.98 1.02 1.11 1.24 1.30 1.34 1.36 1.35 1.30 1.28 1.27 1.30 1.32 1.32 1.27 1.06 0.94 0.90 0.88 0.73 0.52 0.31 0.14 0.09 0.07 0.07 0.05 0.05 0.04 0.03 0.02 0.01 0.01 0.01 0.01 0.02 0.02 0.04 0.08 0.14 0.22 0.43
0.68 0.66 0.69 0.79 0.91 1.02 1.09 1.13 1.18 1.20 1.17 1.13 1.15 1.16 1.12 1.17 1.12 0.96 0.88 0.86 0.87 0.72 0.62 0.44 0.23 0.11 0.09 0.08 0.07 0.06 0.04 0.03 0.02 0.02 0.01 0.01 0.01 0.02 0.02 0.02 0.03 0.05 0.11
0.57 0.58 0.58 0.62 0.69 0.77 0.86 0.91 0.96 1.00 0.95 0.89 0.89 0.89 0.94 1.01 1.08 1.05 1.01 0.95 0.90 0.82 0.72 0.58 0.36 0.17 0.13 0.14 0.13 0.09 0.07 0.06 0.03 0.02 0.01 0.01 0.01 0.01 0.01 0.01 0.01 0.01 0.01
0.59 0.52 0.53 0.60 0.61 0.64 0.67 0.74 0.85 0.95 0.89 0.83 0.74 0.72 0.81 0.88 1.06 1.12 1.10 1.00 0.95 0.88 0.76 0.72 0.52 0.28 0.20 0.19 0.19 0.12 0.08 0.06 0.04 0.03 0.02 0.02 0.02 0.02 0.01 0.01 0.01 0.00 0.00
0.49 0.49 0.54 0.55 0.54 0.57 0.60 0.67 0.77 0.82 0.82 0.74 0.65 0.61 0.65 0.73 0.88 1.03 1.14 1.05 0.98 0.91 0.86 0.83 0.66 0.46 0.34 0.28 0.22 0.16 0.11 0.08 0.07 0.07 0.06 0.04 0.03 0.03 0.02 0.01 0.00 0.00 0.00
0.44 0.50 0.51 0.53 0.53 0.51 0.56 0.60 0.63 0.63 0.56 0.52 0.51 0.50 0.55 0.59 0.67 0.80 0.93 1.02 0.98 0.91 0.94 0.95 0.81 0.62 0.46 0.35 0.29 0.24 0.17 0.14 0.12 0.09 0.09 0.08 0.06 0.05 0.04 0.03 0.02 0.01 0.01
0.37 0.40 0.45 0.45 0.49 0.48 0.49 0.50 0.50 0.55 0.48 0.38 0.33 0.33 0.37 0.40 0.46 0.58 0.71 0.84 0.95 0.98 1.00 1.01 0.94 0.73 0.54 0.40 0.30 0.28 0.29 0.25 0.22 0.16 0.12 0.12 0.11 0.10 0.07 0.06 0.04 0.03 0.02
0.28 0.31 0.41 0.51 0.54 0.53 0.54 0.53 0.45 0.47 0.46 0.41 0.35 0.30 0.25 0.26 0.31 0.38 0.49 0.68 0.81 0.93 1.00 1.05 1.01 0.87 0.70 0.57 0.43 0.36 0.34 0.38 0.38 0.31 0.24 0.21 0.19 0.16 0.13 0.10 0.07 0.05 0.04
0.24 0.27 0.32 0.42 0.54 0.52 0.60 0.59 0.50 0.45 0.46 0.39 0.35 0.36 0.35 0.31 0.23 0.19 0.21 0.32 0.47 0.65 0.81 0.91 0.96 0.87 0.74 0.64 0.58 0.50 0.41 0.36 0.37 0.38 0.36 0.36 0.33 0.29 0.29 0.25 0.22 0.19 0.14
0.26 0.29 0.32 0.41 0.53 0.65 0.62 0.47 0.48 0.45 0.44 0.40 0.33 0.33 0.35 0.34 0.37 0.33 0.27 0.23 0.23 0.31 0.47 0.63 0.71 0.73 0.78 0.67 0.54 0.44 0.38 0.35 0.34 0.35 0.34 0.34 0.35 0.34 0.34 0.34 0.34 0.33 0.29
0.28 0.29 0.33 0.36 0.41 0.54 0.51 0.41 0.52 0.51 0.52 0.50 0.42 0.38 0.40 0.38 0.38 0.50 0.52 0.44 0.36 0.37 0.47 0.38 0.41 0.61 0.66 0.61 0.52 0.45 0.43 0.38 0.32 0.28 0.26 0.30 0.31 0.30 0.26 0.25 0.26 0.26 0.26
0.32 0.31 0.29 0.31 0.34 0.39 0.42 0.36 0.40 0.50 0.58 0.55 0.46 0.44 0.46 0.47 0.59 0.59 0.51 0.48 0.47 0.46 0.64 0.66 0.61 0.56 0.50 0.43 0.41 0.44 0.42 0.37 0.33 0.29 0.25 0.23 0.26 0.31 0.31 0.28 0.26 0.24 0.21
0.40 0.36 0.33 0.30 0.33 0.34 0.42 0.28 0.32 0.43 0.53 0.60 0.56 0.50 0.66 0.61 0.61 0.47 0.34 0.44 0.51 0.50 0.50 0.51 0.51 0.47 0.39 0.33 0.32 0.33 0.40 0.40 0.35 0.33 0.30 0.26 0.25 0.27 0.27 0.27 0.26 0.25 0.23